DW9439 Weather Reports


Display with metric or nautical units.
time (UTC)temp
F
wind
direction
speed
MPH
gust
MPH
rain 1hr
in
rain 24hr
in
rain mn
in
humidity
%
barometer
mb
20260904054158 77 220 6.0 8.0 0.00 0.00 0.00 52 1012.9
20260904053901 77 220 5.0 7.0 0.00 0.00 0.00 52 1012.9
20260904053602 77 220 5.0 7.0 0.00 0.00 0.00 51 1013.0
20260904053258 77 220 5.0 7.0 0.00 0.00 0.00 51 1012.9
20260904052952 77 220 5.0 7.0 0.00 0.00 0.00 50 1012.9
20260904052644 78 220 5.0 7.0 0.00 0.00 0.00 49 1013.0
20260904051911 79 220 5.0 8.0 0.00 0.00 0.00 48 1013.2
20260904051609 79 220 6.0 14.0 0.00 0.00 0.00 47 1013.2
20260904050432 81 220 7.0 14.0 0.00 0.00 0.00 45 1013.2
20260904050119 81 221 6.0 14.0 0.00 0.00 0.00 45 1013.1
20260904045353 80 248 3.0 8.0 0.00 0.00 0.00 45 1013.1
20260904045048 80 248 1.0 8.0 0.00 0.00 0.00 45 1013.1
20260904044739 80 248 0.0 8.0 0.00 0.00 0.00 44 1013.0
20260904044437 80 248 0.0 0.0 0.00 0.00 0.00 44 1013.1
20260904044128 80 248 0.0 0.0 0.00 0.00 0.00 44 1013.2
20260904043815 81 248 0.0 1.0 0.00 0.00 0.00 44 1013.1
20260904043512 81 248 0.0 0.0 0.00 0.00 0.00 43 1013.2
20260904043205 81 248 0.0 1.0 0.00 0.00 0.00 43 1013.1
20260904042902 81 248 0.0 0.0 0.00 0.00 0.00 42 1013.3
20260904042554 81 248 1.0 4.0 0.00 0.00 0.00 40 1013.4
20260904041833 81 248 2.0 4.0 0.00 0.00 0.00 40 1013.4
20260904041533 81 248 1.0 4.0 0.00 0.00 0.00 40 1013.5
20260904041231 80 248 1.0 4.0 0.00 0.00 0.00 41 1013.6
20260904040918 80 248 0.0 3.0 0.00 0.00 0.00 41 1013.6
20260904040620 79 248 0.0 3.0 0.00 0.00 0.00 41 1013.7
20260904040322 79 248 0.0 3.0 0.00 0.00 0.00 41 1013.7
20260904040011 79 248 0.0 0.0 0.00 0.00 0.00 41 1013.8
20260904035245 79 248 0.0 0.0 0.00 0.00 0.00 41 1013.7
20260904034935 79 248 0.0 3.0 0.00 0.00 0.00 41 1013.7
20260904034625 79 248 0.0 4.0 0.00 0.00 0.00 40 1013.6
20260904033859 79 248 2.0 5.0 0.00 0.00 0.00 40 1013.1
20260904033132 79 248 3.0 5.0 0.00 0.00 0.00 40 1012.9
20260904032418 79 248 3.0 5.0 0.00 0.00 0.00 40 1012.8
20260904032112 79 248 2.0 5.0 0.00 0.00 0.00 40 1012.8
20260904031803 79 248 1.0 4.0 0.00 0.00 0.00 40 1012.8
20260904031458 78 248 0.0 4.0 0.00 0.00 0.00 40 1012.7
20260904031145 79 248 0.0 3.0 0.00 0.00 0.00 40 1012.8
20260904030839 79 248 0.0 3.0 0.00 0.00 0.00 40 1012.7
20260904030534 79 248 1.0 5.0 0.00 0.00 0.00 40 1012.8
20260904030224 79 248 1.0 5.0 0.00 0.00 0.00 39 1012.6
20260904025911 79 248 1.0 5.0 0.00 0.00 0.00 39 1012.6
20260904025608 79 248 1.0 5.0 0.00 0.00 0.00 39 1012.6
20260904025259 79 248 1.0 5.0 0.00 0.00 0.00 38 1012.5
20260904024954 80 248 1.0 5.0 0.00 0.00 0.00 38 1012.5
20260904024656 80 248 2.0 5.0 0.00 0.00 0.00 37 1012.5
20260904024346 80 248 2.0 5.0 0.00 0.00 0.00 37 1012.5
20260904024046 81 248 3.0 5.0 0.00 0.00 0.00 37 1012.4
20260904023307 81 248 2.0 5.0 0.00 0.00 0.00 36 1012.5
20260904022955 82 248 1.0 5.0 0.00 0.00 0.00 36 1012.4
20260904022643 82 248 2.0 5.0 0.00 0.00 0.00 36 1012.3
20260904022338 82 248 2.0 5.0 0.00 0.00 0.00 36 1012.4
20260904022031 82 248 2.0 5.0 0.00 0.00 0.00 36 1012.4
20260904021725 82 248 1.0 5.0 0.00 0.00 0.00 35 1012.3
20260904021419 83 248 1.0 6.0 0.00 0.00 0.00 35 1012.3
20260904020657 83 248 3.0 6.0 0.00 0.00 0.00 34 1012.2
20260904020352 84 248 2.0 6.0 0.00 0.00 0.00 33 1012.3
20260904020043 84 248 2.0 6.0 0.00 0.00 0.00 33 1012.2
20260904015742 84 248 2.0 6.0 0.00 0.00 0.00 33 1012.2
20260904015434 84 248 1.0 5.0 0.00 0.00 0.00 32 1012.2
20260904015125 85 248 1.0 5.0 0.00 0.00 0.00 32 1012.0
20260904014814 85 248 1.0 5.0 0.00 0.00 0.00 31 1012.0
20260904014512 86 248 2.0 6.0 0.00 0.00 0.00 30 1012.0
20260904013745 87 248 2.0 6.0 0.00 0.00 0.00 29 1011.8
20260904013431 87 248 2.0 6.0 0.00 0.00 0.00 29 1011.6
20260904013131 87 248 2.0 6.0 0.00 0.00 0.00 28 1011.6
20260904012414 88 248 2.0 5.0 0.00 0.00 0.00 27 1011.4
20260904011651 89 248 1.0 4.0 0.00 0.00 0.00 26 1011.4
20260904011352 90 248 1.0 4.0 0.00 0.00 0.00 26 1011.4
20260904011052 91 248 0.0 4.0 0.00 0.00 0.00 25 1011.3
20260904010751 92 248 0.0 4.0 0.00 0.00 0.00 26 1011.3
20260904010441 92 248 0.0 0.0 0.00 0.00 0.00 26 1011.2
20260904010139 93 248 0.0 0.0 0.00 0.00 0.00 26 1011.3
20260904005833 93 248 0.0 2.0 0.00 0.00 0.00 26 1011.3
20260904005523 93 248 0.0 2.0 0.00 0.00 0.00 26 1011.2
20260904005222 94 248 0.0 3.0 0.00 0.00 0.00 26 1011.3
20260904004919 94 248 1.0 3.0 0.00 0.00 0.00 25 1011.3
20260904004617 95 248 1.0 3.0 0.00 0.00 0.00 25 1011.2
20260904004305 95 248 1.0 4.0 0.00 0.00 0.00 25 1011.2
20260904003957 95 248 1.0 4.0 0.00 0.00 0.00 24 1011.2
20260904003644 96 248 1.0 4.0 0.00 0.00 0.00 25 1011.2
20260904003345 96 248 2.0 10.0 0.00 0.00 0.00 24 1011.3
20260904003039 96 248 3.0 10.0 0.00 0.00 0.00 24 1011.3
20260904002728 97 248 3.0 10.0 0.00 0.00 0.00 23 1011.3
20260904002014 98 248 2.0 10.0 0.00 0.00 0.00 23 1011.2
20260904001714 98 248 2.0 10.0 0.00 0.00 0.00 23 1011.3
20260904001408 98 248 1.0 10.0 0.00 0.00 0.00 22 1011.3
20260904001102 99 248 1.0 6.0 0.00 0.00 0.00 22 1011.2
20260904000748 99 248 1.0 6.0 0.00 0.00 0.00 22 1011.2
20260904000451 99 248 2.0 6.0 0.00 0.00 0.00 23 1011.2
20260904000141 99 248 3.0 10.0 0.00 0.00 0.00 22 1011.4
20260903235833 98 248 5.0 10.0 0.00 0.00 0.00 22 1011.2
20260903235115 99 248 7.0 11.0 0.00 0.00 0.00 21 1011.2
20260903234818 99 248 8.0 11.0 0.00 0.00 0.00 20 1011.2
20260903234511 99 249 7.0 11.0 0.00 0.00 0.00 20 1011.2
20260903234200 99 252 5.0 11.0 0.00 0.00 0.00 20 1011.2
20260903233847 100 252 3.0 11.0 0.00 0.00 0.00 20 1011.2
20260903233539 100 254 3.0 11.0 0.00 0.00 0.00 20 1011.2
20260903232815 100 265 3.0 9.0 0.00 0.00 0.00 20 1011.3
20260903232049 99 265 6.0 9.0 0.00 0.00 0.00 20 1011.2
20260903231323 100 265 5.0 9.0 0.00 0.00 0.00 20 1011.3
20260903231025 100 266 5.0 9.0 0.00 0.00 0.00 20 1011.2
20260903230725 100 266 5.0 9.0 0.00 0.00 0.00 20 1011.3
20260903230419 100 266 4.0 10.0 0.00 0.00 0.00 21 1011.3
20260903230115 100 266 3.0 10.0 0.00 0.00 0.00 20 1011.3
20260903225814 100 265 3.0 10.0 0.00 0.00 0.00 22 1011.3
20260903225101 99 265 6.0 11.0 0.00 0.00 0.00 21 1011.2
20260903224333 100 269 7.0 14.0 0.00 0.00 0.00 21 1011.3
20260903224023 99 268 7.0 14.0 0.00 0.00 0.00 21 1011.2
20260903223716 99 268 8.0 14.0 0.00 0.00 0.00 21 1011.2
20260903223408 99 268 8.0 14.0 0.00 0.00 0.00 20 1011.2
20260903223058 99 261 7.0 14.0 0.00 0.00 0.00 21 1011.2
20260903222318 100 260 7.0 13.0 0.00 0.00 0.00 21 1011.2
20260903222014 99 260 7.0 13.0 0.00 0.00 0.00 20 1011.1
20260903221711 100 260 7.0 13.0 0.00 0.00 0.00 20 1011.1
20260903221402 100 251 6.0 13.0 0.00 0.00 0.00 21 1011.1
20260903221059 100 277 6.0 13.0 0.00 0.00 0.00 20 1011.2
20260903215907 100 273 7.0 12.0 0.00 0.00 0.00 21 1011.4
20260903215148 99 281 7.0 15.0 0.00 0.00 0.00 20 1011.4
20260903214841 99 275 8.0 15.0 0.00 0.00 0.00 20 1011.4
20260903214535 99 273 7.0 15.0 0.00 0.00 0.00 21 1011.4
20260903214223 99 281 7.0 17.0 0.00 0.00 0.00 21 1011.4
20260903213916 99 246 6.0 17.0 0.00 0.00 0.00 21 1011.5
20260903213153 100 227 10.0 17.0 0.00 0.00 0.00 22 1011.7
20260903212011 99 277 6.0 15.0 0.00 0.00 0.00 22 1011.8
20260903211714 99 275 7.0 15.0 0.00 0.00 0.00 21 1011.9
20260903210949 99 277 8.0 15.0 0.00 0.00 0.00 22 1012.0
20260903210635 99 259 8.0 15.0 0.00 0.00 0.00 21 1012.0
20260903210335 99 200 8.0 15.0 0.00 0.00 0.00 22 1012.2
20260903210029 99 199 10.0 15.0 0.00 0.00 0.00 21 1012.2
20260903205729 99 197 8.0 15.0 0.00 0.00 0.00 21 1012.2
20260903205417 99 211 8.0 15.0 0.00 0.00 0.00 21 1012.2
20260903205117 98 241 7.0 14.0 0.00 0.00 0.00 21 1012.3
20260903204815 98 271 7.0 14.0 0.00 0.00 0.00 21 1012.2
20260903204513 98 267 8.0 14.0 0.00 0.00 0.00 21 1012.4
20260903204210 99 269 7.0 14.0 0.00 0.00 0.00 22 1012.5
20260903203904 99 291 7.0 14.0 0.00 0.00 0.00 21 1012.4
20260903203140 99 235 8.0 14.0 0.00 0.00 0.00 21 1012.4
20260903202838 99 259 7.0 13.0 0.00 0.00 0.00 20 1012.5
20260903202534 99 265 6.0 13.0 0.00 0.00 0.00 22 1012.5
20260903202231 99 276 4.0 13.0 0.00 0.00 0.00 21 1012.5
20260903201505 98 291 4.0 9.0 0.00 0.00 0.00 21 1012.5
20260903200748 98 290 7.0 14.0 0.00 0.00 0.00 21 1012.7
20260903200021 98 301 8.0 17.0 0.00 0.00 0.00 22 1012.7
20260903195724 99 298 8.0 17.0 0.00 0.00 0.00 20 1012.6
20260903195426 99 281 8.0 17.0 0.00 0.00 0.00 21 1012.7
20260903195119 98 286 7.0 17.0 0.00 0.00 0.00 22 1012.8
20260903194821 98 291 7.0 17.0 0.00 0.00 0.00 22 1012.8
20260903194516 98 293 7.0 17.0 0.00 0.00 0.00 21 1012.9
20260903194207 98 288 7.0 13.0 0.00 0.00 0.00 21 1012.9
20260903193910 97 300 6.0 13.0 0.00 0.00 0.00 21 1012.9
20260903193559 98 300 5.0 13.0 0.00 0.00 0.00 21 1013.0
20260903193250 98 308 4.0 13.0 0.00 0.00 0.00 21 1012.8
20260903192950 98 284 5.0 13.0 0.00 0.00 0.00 21 1012.9
20260903192652 98 279 5.0 13.0 0.00 0.00 0.00 21 1013.0
20260903192344 98 279 5.0 13.0 0.00 0.00 0.00 22 1013.1
20260903192042 98 300 5.0 13.0 0.00 0.00 0.00 21 1013.1
20260903191737 98 296 5.0 13.0 0.00 0.00 0.00 22 1013.1
20260903191429 97 296 6.0 13.0 0.00 0.00 0.00 22 1013.2
20260903191127 98 304 6.0 13.0 0.00 0.00 0.00 22 1013.3
20260903185951 97 318 6.0 13.0 0.00 0.00 0.00 22 1013.4
20260903185653 97 298 6.0 13.0 0.00 0.00 0.00 22 1013.4
20260903185354 97 298 7.0 13.0 0.00 0.00 0.00 22 1013.4
20260903185052 97 298 6.0 13.0 0.00 0.00 0.00 22 1013.2
20260903184751 97 298 6.0 13.0 0.00 0.00 0.00 22 1013.4
20260903184444 97 316 6.0 11.0 0.00 0.00 0.00 23 1013.4
20260903184132 97 318 7.0 11.0 0.00 0.00 0.00 23 1013.4
20260903183828 97 321 7.0 12.0 0.00 0.00 0.00 23 1013.4
20260903183525 97 321 6.0 12.0 0.00 0.00 0.00 24 1013.4
20260903183213 97 307 6.0 12.0 0.00 0.00 0.00 24 1013.5
20260903182445 96 311 6.0 13.0 0.00 0.00 0.00 24 1013.7
20260903182132 96 311 5.0 13.0 0.00 0.00 0.00 25 1013.7
20260903181827 96 311 6.0 14.0 0.00 0.00 0.00 25 1013.8
20260903181529 96 313 6.0 14.0 0.00 0.00 0.00 25 1013.8
20260903180804 96 329 7.0 17.0 0.00 0.00 0.00 24 1013.9
20260903180503 96 334 7.0 17.0 0.00 0.00 0.00 23 1014.0
20260903180156 96 341 8.0 17.0 0.00 0.00 0.00 23 1014.0
20260903175856 96 334 9.0 17.0 0.00 0.00 0.00 24 1014.0
20260903175545 96 351 9.0 17.0 0.00 0.00 0.00 23 1014.0
20260903175235 96 348 8.0 17.0 0.00 0.00 0.00 24 1014.0
20260903174939 95 344 8.0 17.0 0.00 0.00 0.00 23 1014.0
20260903174639 95 335 7.0 14.0 0.00 0.00 0.00 24 1014.2
20260903174332 95 337 7.0 14.0 0.00 0.00 0.00 24 1014.1
20260903173605 95 320 8.0 14.0 0.00 0.00 0.00 26 1014.2
20260903173305 95 322 8.0 14.0 0.00 0.00 0.00 25 1014.2
20260903172958 94 298 8.0 14.0 0.00 0.00 0.00 25 1014.3
20260903172657 94 313 8.0 12.0 0.00 0.00 0.00 26 1014.2
20260903172346 94 304 8.0 12.0 0.00 0.00 0.00 27 1014.2
20260903172050 94 298 8.0 15.0 0.00 0.00 0.00 26 1014.2
20260903171750 94 308 8.0 15.0 0.00 0.00 0.00 25 1014.2
20260903171439 94 307 8.0 15.0 0.00 0.00 0.00 27 1014.2
20260903171142 93 306 8.0 15.0 0.00 0.00 0.00 26 1014.2
20260903170835 93 295 8.0 15.0 0.00 0.00 0.00 27 1014.2
20260903170535 93 309 8.0 15.0 0.00 0.00 0.00 28 1014.2
20260903170236 93 313 8.0 15.0 0.00 0.00 0.00 28 1014.2
20260903165457 93 288 7.0 14.0 0.00 0.00 0.00 28 1014.1
20260903165154 92 285 6.0 14.0 0.00 0.00 0.00 29 1014.2
20260903164843 92 283 7.0 14.0 0.00 0.00 0.00 31 1014.1
20260903164538 92 282 7.0 14.0 0.00 0.00 0.00 32 1014.2
20260903164226 91 282 7.0 14.0 0.00 0.00 0.00 32 1014.2
20260903163921 91 271 7.0 12.0 0.00 0.00 0.00 32 1014.3
20260903163620 91 269 7.0 12.0 0.00 0.00 0.00 33 1014.3
20260903163314 90 267 6.0 11.0 0.00 0.00 0.00 36 1014.3
20260903163017 90 267 6.0 11.0 0.00 0.00 0.00 36 1014.1
20260903162706 89 267 6.0 11.0 0.00 0.00 0.00 38 1014.1
20260903162408 89 267 6.0 11.0 0.00 0.00 0.00 37 1014.1
20260903162109 88 267 6.0 10.0 0.00 0.00 0.00 39 1014.1
20260903161803 88 267 6.0 10.0 0.00 0.00 0.00 39 1014.2
20260903160628 86 266 6.0 11.0 0.00 0.00 0.00 41 1014.2
20260903160319 86 266 6.0 11.0 0.00 0.00 0.00 41 1014.2
20260903155548 86 266 6.0 11.0 0.00 0.00 0.00 42 1014.3
20260903155243 85 265 6.0 11.0 0.00 0.00 0.00 42 1014.3
20260903154946 85 265 6.0 11.0 0.00 0.00 0.00 42 1014.3
20260903154647 84 265 6.0 11.0 0.00 0.00 0.00 44 1014.2
20260903154336 84 265 6.0 11.0 0.00 0.00 0.00 43 1014.2
20260903153608 83 264 6.0 10.0 0.00 0.00 0.00 46 1014.2
20260903152836 82 263 6.0 11.0 0.00 0.00 0.00 46 1014.2
20260903152527 82 263 7.0 11.0 0.00 0.00 0.00 47 1014.1
20260903152224 81 263 7.0 11.0 0.00 0.00 0.00 46 1014.0
20260903151923 81 263 7.0 11.0 0.00 0.00 0.00 47 1014.1
20260903151144 80 257 6.0 10.0 0.00 0.00 0.00 48 1014.1
20260903150845 80 256 6.0 11.0 0.00 0.00 0.00 48 1014.2
20260903150533 79 256 6.0 11.0 0.00 0.00 0.00 49 1014.1
20260903145820 78 254 7.0 11.0 0.00 0.00 0.00 49 1014.1
20260903145517 78 254 7.0 11.0 0.00 0.00 0.00 50 1014.1
20260903145204 78 254 7.0 11.0 0.00 0.00 0.00 50 1014.0
20260903144904 78 254 6.0 11.0 0.00 0.00 0.00 51 1014.0
20260903144551 77 251 6.0 12.0 0.00 0.00 0.00 51 1014.0
20260903144246 77 251 6.0 12.0 0.00 0.00 0.00 52 1014.0
20260903143945 77 251 7.0 12.0 0.00 0.00 0.00 52 1014.1
20260903143645 77 250 7.0 12.0 0.00 0.00 0.00 51 1014.0
20260903143336 76 250 7.0 12.0 0.00 0.00 0.00 51 1014.1
20260903143029 76 250 7.0 12.0 0.00 0.00 0.00 52 1014.0
20260903142720 76 244 7.0 11.0 0.00 0.00 0.00 53 1014.1
20260903142408 76 243 7.0 11.0 0.00 0.00 0.00 52 1014.1
20260903142104 76 242 7.0 11.0 0.00 0.00 0.00 53 1014.0
20260903141759 75 240 7.0 11.0 0.00 0.00 0.00 54 1014.0
20260903141449 75 240 7.0 11.0 0.00 0.00 0.00 55 1014.1
20260903141148 75 240 7.0 11.0 0.00 0.00 0.00 54 1014.1
20260903140844 74 239 7.0 11.0 0.00 0.00 0.00 56 1014.1
20260903140120 73 237 7.0 10.0 0.00 0.00 0.00 60 1014.2
20260903135820 72 237 7.0 13.0 0.00 0.00 0.00 62 1014.2
20260903135508 72 237 7.0 13.0 0.00 0.00 0.00 63 1014.2
20260903135211 71 237 7.0 13.0 0.00 0.00 0.00 64 1014.1
20260903134911 71 236 8.0 13.0 0.00 0.00 0.00 65 1014.1
20260903134614 70 236 8.0 13.0 0.00 0.00 0.00 66 1014.0
20260903134315 70 236 8.0 13.0 0.00 0.00 0.00 67 1014.1
20260903134007 69 234 8.0 13.0 0.00 0.00 0.00 68 1014.1
20260903133238 68 223 8.0 12.0 0.00 0.00 0.00 71 1014.0
20260903132930 68 222 7.0 12.0 0.00 0.00 0.00 72 1014.1
20260903132202 67 215 7.0 10.0 0.00 0.00 0.00 74 1014.1
20260903131855 67 214 7.0 10.0 0.00 0.00 0.00 74 1014.0
20260903131550 67 213 7.0 10.0 0.00 0.00 0.00 75 1014.0
20260903130828 66 213 7.0 10.0 0.00 0.00 0.00 76 1013.7
20260903130522 66 213 7.0 10.0 0.00 0.00 0.00 77 1013.6
20260903130219 66 213 7.0 9.0 0.00 0.00 0.00 77 1013.6
20260903125911 66 213 7.0 9.0 0.00 0.00 0.00 77 1013.7
20260903125615 66 213 7.0 9.0 0.00 0.00 0.00 77 1013.7
20260903125313 66 213 6.0 12.0 0.00 0.00 0.00 77 1013.7
20260903125015 66 213 7.0 12.0 0.00 0.00 0.00 76 1013.5
20260903124708 66 213 7.0 12.0 0.00 0.00 0.00 76 1013.5
20260903124408 66 213 8.0 12.0 0.00 0.00 0.00 76 1013.4
20260903123643 66 213 7.0 12.0 0.00 0.00 0.00 76 1013.3
20260903123347 66 213 7.0 11.0 0.00 0.00 0.00 76 1013.3
20260903123050 66 213 7.0 13.0 0.00 0.00 0.00 76 1013.4
20260903122750 66 213 7.0 13.0 0.00 0.00 0.00 75 1013.4
20260903122437 66 213 8.0 13.0 0.00 0.00 0.00 75 1013.3
20260903122140 66 212 8.0 13.0 0.00 0.00 0.00 75 1013.1
20260903121419 66 212 8.0 13.0 0.00 0.00 0.00 74 1013.2
20260903121117 67 212 8.0 13.0 0.00 0.00 0.00 74 1013.2
20260903120818 67 211 8.0 12.0 0.00 0.00 0.00 74 1013.1
20260903120522 67 211 9.0 12.0 0.00 0.00 0.00 74 1013.1
20260903120217 67 211 9.0 12.0 0.00 0.00 0.00 73 1013.1
20260903115908 67 211 9.0 12.0 0.00 0.00 0.00 73 1013.1
20260903115154 67 209 9.0 12.0 0.00 0.00 0.00 74 1013.1
20260903114842 67 207 8.0 12.0 0.00 0.00 0.00 74 1013.0
20260903114535 67 207 8.0 11.0 0.00 0.00 0.00 73 1013.0
20260903113807 67 207 8.0 11.0 0.00 0.00 0.00 72 1012.9
20260903113506 67 207 8.0 11.0 0.00 0.00 0.00 72 1013.0
20260903112732 68 207 8.0 10.0 0.00 0.00 0.00 71 1012.8
20260903110651 69 206 9.0 14.0 0.00 0.00 0.00 69 1012.8
20260903110348 69 205 9.0 14.0 0.00 0.00 0.00 69 1013.4
20260903110034 69 205 10.0 14.0 0.00 0.00 0.00 69 1012.8
20260903105734 69 205 10.0 14.0 0.00 0.00 0.00 69 1012.8
20260903105421 69 204 10.0 14.0 0.00 0.00 0.00 69 1012.8
20260903105122 69 204 10.0 14.0 0.00 0.00 0.00 69 1013.0
20260903104822 69 202 10.0 14.0 0.00 0.00 0.00 69 1012.9
20260903103655 69 200 9.0 12.0 0.00 0.00 0.00 69 1012.8
20260903103357 69 198 10.0 14.0 0.00 0.00 0.00 69 1012.9
20260903103050 69 198 10.0 14.0 0.00 0.00 0.00 69 1012.8
20260903102754 69 198 10.0 14.0 0.00 0.00 0.00 69 1012.8
20260903102442 69 198 10.0 14.0 0.00 0.00 0.00 69 1012.8
20260903102132 69 198 10.0 14.0 0.00 0.00 0.00 68 1012.8
20260903101827 69 198 10.0 14.0 0.00 0.00 0.00 68 1012.8
20260903101514 70 198 10.0 13.0 0.00 0.00 0.00 68 1012.7
20260903100739 70 200 10.0 13.0 0.00 0.00 0.00 67 1012.9
20260903100024 71 198 10.0 14.0 0.00 0.00 0.00 66 1012.8
20260903094844 71 200 11.0 14.0 0.00 0.00 0.00 66 1012.9
20260903094120 71 198 10.0 13.0 0.00 0.00 0.00 66 1012.8
20260903093404 71 196 10.0 15.0 0.00 0.00 0.00 66 1012.9
20260903093058 71 196 10.0 15.0 0.00 0.00 0.00 66 1012.8
20260903092750 71 195 10.0 15.0 0.00 0.00 0.00 66 1012.9
20260903092444 71 194 10.0 15.0 0.00 0.00 0.00 65 1012.9
20260903091731 72 190 11.0 15.0 0.00 0.00 0.00 65 1012.9
20260903091433 72 192 11.0 18.0 0.00 0.00 0.00 65 1013.0
20260903090701 72 194 11.0 18.0 0.00 0.00 0.00 65 1013.1
20260903090400 72 192 12.0 18.0 0.00 0.00 0.00 65 1013.0
20260903090055 72 193 12.0 18.0 0.00 0.00 0.00 64 1013.0
20260903085747 72 191 12.0 18.0 0.00 0.00 0.00 64 1012.9
20260903085021 72 188 12.0 17.0 0.00 0.00 0.00 64 1012.9
20260903084717 72 188 12.0 17.0 0.00 0.00 0.00 65 1012.9
20260903084421 72 188 12.0 17.0 0.00 0.00 0.00 65 1012.9
20260903084113 72 182 11.0 17.0 0.00 0.00 0.00 65 1012.8
20260903083813 72 184 10.0 17.0 0.00 0.00 0.00 65 1012.9
20260903083502 72 191 7.0 14.0 0.00 0.00 0.00 65 1013.1
20260903083200 72 194 6.0 13.0 0.00 0.00 0.00 65 1013.1
20260903082901 72 194 6.0 10.0 0.00 0.00 0.00 64 1013.3
20260903082138 73 194 7.0 13.0 0.00 0.00 0.00 64 1013.4
20260903081839 73 194 8.0 13.0 0.00 0.00 0.00 64 1013.5
20260903081525 73 194 9.0 13.0 0.00 0.00 0.00 64 1013.5
20260903081223 73 193 10.0 15.0 0.00 0.00 0.00 64 1013.4
20260903080454 73 188 11.0 15.0 0.00 0.00 0.00 64 1013.2
20260903075726 73 186 11.0 19.0 0.00 0.00 0.00 63 1013.2
20260903075008 74 187 12.0 19.0 0.00 0.00 0.00 63 1013.2
20260903074704 74 188 12.0 19.0 0.00 0.00 0.00 63 1013.2
20260903074407 74 190 12.0 19.0 0.00 0.00 0.00 63 1013.3
20260903074100 74 186 11.0 18.0 0.00 0.00 0.00 63 1013.3
20260903073803 74 184 10.0 18.0 0.00 0.00 0.00 63 1013.3
20260903073452 74 185 10.0 18.0 0.00 0.00 0.00 63 1013.4
20260903072735 74 184 10.0 15.0 0.00 0.00 0.00 63 1013.3
20260903072431 74 184 10.0 15.0 0.00 0.00 0.00 63 1013.3
20260903072129 74 185 10.0 17.0 0.00 0.00 0.00 63 1013.3
20260903071824 74 188 10.0 17.0 0.00 0.00 0.00 63 1013.3
20260903071101 74 186 10.0 17.0 0.00 0.00 0.00 63 1013.3
20260903070751 74 185 10.0 17.0 0.00 0.00 0.00 63 1013.3
20260903070024 74 187 9.0 13.0 0.00 0.00 0.00 63 1013.3
20260903065721 74 188 9.0 13.0 0.00 0.00 0.00 63 1013.4
20260903065418 74 188 9.0 13.0 0.00 0.00 0.00 63 1013.4
20260903065113 74 188 9.0 13.0 0.00 0.00 0.00 63 1013.4
20260903064800 74 188 9.0 13.0 0.00 0.00 0.00 62 1013.5
20260903064458 74 189 8.0 13.0 0.00 0.00 0.00 62 1013.5
20260903064148 74 190 9.0 13.0 0.00 0.00 0.00 62 1013.5
20260903063849 74 192 9.0 13.0 0.00 0.00 0.00 62 1013.5
20260903063120 74 193 8.0 11.0 0.00 0.00 0.00 61 1013.6
20260903062820 74 193 8.0 12.0 0.00 0.00 0.00 61 1013.5
20260903062506 74 194 8.0 12.0 0.00 0.00 0.00 61 1013.5
20260903062201 75 194 8.0 12.0 0.00 0.00 0.00 60 1013.6
20260903061852 75 194 9.0 12.0 0.00 0.00 0.00 60 1013.5
20260903061550 75 196 9.0 12.0 0.00 0.00 0.00 60 1013.6
20260903061252 75 196 9.0 12.0 0.00 0.00 0.00 60 1013.6
20260903060956 75 196 9.0 13.0 0.00 0.00 0.00 59 1013.7
20260903060650 75 197 9.0 13.0 0.00 0.00 0.00 59 1013.6
20260903060351 75 198 9.0 13.0 0.00 0.00 0.00 59 1013.6
20260903060039 76 198 9.0 13.0 0.00 0.00 0.00 59 1013.6
20260903055728 76 197 9.0 13.0 0.00 0.00 0.00 59 1013.5
20260903055009 76 198 10.0 13.0 0.00 0.00 0.00 58 1013.6
20260903054657 76 198 10.0 13.0 0.00 0.00 0.00 58 1013.6